Weather in Dolishny Shopot

Ukraine / Chernovtci District     48°00′44″N   25°17′16″E
temp.,
°C
wind,
m/s
gust,
m/s
humid.,
%
clouds,
%
prec.,
mm/h
press.,
hPa
HPBL,
m
1 march, mon
mon123:00−2wsw2288100 0.0 102950
02:00−2w1296100 1.3 1028131
05:00−2nnw3897100 3.8 1029661
08:00−2nnw4897100 6.0 1030587
11:00−1n2696100 1.2 1031401
14:00−1n3696100 3.4 1032458
17:00−1nnw3696100 0.4 1033467
20:00−2nw1399100 0.9 1035144
2 march, tue
tue223:00−2nw1498100 0.8 1036320
02:00−5wsw119575 0.8 103621
05:00−6sw228910 0.0 103523
08:00−3sw22755 0.0 103532
11:00+5w126221 0.0 1032299
14:00+8wnw245811 0.0 1031595
17:00+6w22810 0.0 102931
20:00−1wsw22850 0.0 103129
3 march, wed
wed323:00−2wsw22820 0.0 103223
02:00−2wsw12810 0.0 103224
05:00−3wsw11810 0.0 103222
08:00−1wsw11780 0.0 103224
11:00+5nnw23710 0.0 1032545
14:00+6nnw247124 0.0 1030662
17:00+4ne11901 0.0 102823
20:000sw22910 0.0 102922
4 march, thu
thu423:00−1sw22850 0.0 102825
02:00−1sw22850 0.0 102630
05:00−1sw227835 0.0 102332
08:000sw277731 0.0 1022213
11:00+6w5115615 0.0 1019848
14:00+7w596017 0.0 1017905
17:00+4wsw297525 0.0 1015450
20:000sw228829 0.0 101540
5 march, fri
fri523:00−1sw338426 0.0 101547
02:00+1sw3118045 0.0 1014320
05:00+1sw31479100 0.0 1013491
08:00+2ssw21275100 0.0 1012560
11:00+5wsw81562100 0.0 10101041
14:00+6wsw71467100 0.0 10091323
17:00+4w41081100 0.0 10101107
20:00+2wnw299584 0.1 1012508